OneWeb SL0254

operational
NORAD ID: 48972 Int'l Des: 2021-060 Owner: ONEWEBN Country: UK Constellation: oneweb
LEOCIRCULARPOLARONEWEB_TYPE

Über OneWeb SL0254

Beschreibung wird geladen...

Live-Position

3D-Globus wird geladen...

Nächste Überflüge

Höhenverlauf

Altitude vs Time

uPlot chart will show altitude changes over time

Zweizeiliger Elementsatz

1 48972U 21060F 25304.63532359 .00000042 00000-0 77124-4 0 9990
2 48972 87.8998 274.2892 0002245 90.4461 269.6927 13.16592769209519
Epoch: 31. Okt. 2025 • Age: 29 hours

Aktueller Status

Höhe 1217.3 km
Geschwindigkeit 7.24 km/s
Subsatellitenpunkt -47.14°S, 118.62°E
Startdatum 1. Juli 2021
Alter 4.3 years
Typ internet

Technische Details

Klassifizierung Payload
Masse 148.00 kg
Trockenmasse 140.00 kg
Gesamtmasse 148.00 kg
Länge 1.30 m
Durchmesser 1.00 m
Spannweite 5.00 m
Form Trapezoid+2 pan
Hersteller ONEWUS
Bus-Typ ARROW
Phasenstatus In Orbit
Besitzer/Staat ONEWEBN/UK

Große Konstellationen

Loading constellations...